Location: Newark
(50.9167°N, 3.9500°E)
Time: 22:45:08
(UTC+00:00)

N. Korean satellite - Visible Passes

Search period start: 22 October 2019 00:00
Search period end: 01 November 2019 00:00
Orbit: 455 x 508 km, 97.2° (Epoch: 21 October)

Date Brightness Start Highest point End Pass type
(mag) Time Alt. Az. Time Alt. Az. Time Alt. Az.
22 Oct 7.7 05:30:26 10° NNE 05:33:58 50° E 05:37:32 10° S visible
22 Oct 9.9 17:45:17 10° SW 17:47:38 17° W 17:50:01 10° NW visible
23 Oct 9.1 05:05:26 10° NE 05:08:33 27° E 05:11:42 10° SSE visible
23 Oct 8.7 17:19:01 10° SSW 17:22:08 32° W 17:25:19 10° NNW visible
24 Oct 10.1 04:40:52 10° NE 04:43:03 15° E 04:45:14 10° SE visible
25 Oct 10.3 18:04:05 10° WSW 18:05:15 11° W 18:06:27 10° WNW visible
26 Oct 8.1 05:22:36 10° NNE 05:26:06 41° E 05:29:37 10° S visible
26 Oct 9.5 17:37:00 10° SW 17:39:41 21° W 17:42:25 10° NW visible
27 Oct 9.4 04:57:41 10° NE 05:00:39 23° E 05:03:37 10° SSE visible
27 Oct 8.2 17:10:56 10° SSW 17:14:12 39° W 17:17:33 10° NNW visible
28 Oct 10.3 04:33:23 10° ENE 04:35:06 13° E 04:36:49 10° ESE visible
29 Oct 7.1 05:39:54 10° NNE 05:43:34 66° ESE 05:47:15 10° S visible
29 Oct 10.1 17:55:22 10° WSW 17:57:15 14° W 17:59:09 10° NW visible
30 Oct 8.5 05:14:46 10° NNE 05:18:10 34° E 05:21:35 10° SSE visible
30 Oct 9.1 17:28:45 10° SSW 17:31:42 25° W 17:34:42 10° NW visible
31 Oct 9.7 04:49:57 10° NE 04:52:41 19° E 04:55:25 10° SE visible
31 Oct 7.7 17:02:50 10° S 17:06:14 48° W 17:09:42 10° NNW visible
